Hourly Weather Suffolk

Today, 20 January, Wednesday

Time Temperature Precipitation Wind Pressure Humidity
00:00 +5°C° 0 mm 2 mps 765 mmHg 78%
01:00 +5°C° 0 mm 2 mps 764 mmHg 80%
02:00 +4°C° 0 mm 3 mps 763 mmHg 78%
03:00 +4°C° 0 mm 3 mps 762 mmHg 76%
04:00 +5°C° 0 mm 4 mps 761 mmHg 74%
05:00 +5°C° 0 mm 4 mps 762 mmHg 75%
06:00 +5°C° 0 mm 5 mps 762 mmHg 75%
07:00 +5°C° 0 mm 5 mps 762 mmHg 75%
08:00 +4°C° 0 mm 6 mps 762 mmHg 66%
09:00 +4°C° 0 mm 7 mps 763 mmHg 57%
10:00 +5°C° 0 mm 8 mps 763 mmHg 48%
11:00 +5°C° 0 mm 7 mps 763 mmHg 44%
12:00 +5°C° 0 mm 7 mps 763 mmHg 41%
13:00 +7°C° 0 mm 6 mps 763 mmHg 38%
14:00 +6°C° 0 mm 5 mps 763 mmHg 39%
15:00 +6°C° 0 mm 5 mps 764 mmHg 40%
16:00 +6°C° 0 mm 4 mps 764 mmHg 42%
17:00 +5°C° 0 mm 4 mps 764 mmHg 47%
18:00 +4°C° 0 mm 3 mps 764 mmHg 52%
19:00 +3°C° 0 mm 2 mps 765 mmHg 58%
20:00 +3°C° 0 mm 2 mps 764 mmHg 60%
21:00 +2°C° 0 mm 2 mps 764 mmHg 62%
22:00 +3°C° 0 mm 1 mps 764 mmHg 63%
23:00 +2°C° 0 mm 1 mps 764 mmHg 65%

Tomorrow, 21 January, Thursday

Time Temperature Precipitation Wind Pressure Humidity
00:00 +2°C° 0 mm 1 mps 764 mmHg 67%
01:00 +1°C° 0 mm 1 mps 763 mmHg 69%
02:00 +1°C° 0 mm 1 mps 763 mmHg 68%
03:00 -1°C° 0 mm 2 mps 763 mmHg 67%
04:00 -1°C° 0 mm 2 mps 762 mmHg 66%
05:00 -1°C° 0 mm 2 mps 762 mmHg 66%
06:00 -1°C° 0 mm 3 mps 761 mmHg 66%
07:00 0°C° 0 mm 3 mps 761 mmHg 66%
08:00 +1°C° 0 mm 3 mps 761 mmHg 62%
09:00 +1°C° 0 mm 4 mps 760 mmHg 58%
10:00 +4°C° 0 mm 4 mps 760 mmHg 55%
11:00 +5°C° 0 mm 5 mps 759 mmHg 53%
12:00 +7°C° 0 mm 5 mps 758 mmHg 52%
13:00 +8°C° 0 mm 5 mps 756 mmHg 50%
14:00 +8°C° 0 mm 5 mps 756 mmHg 52%
15:00 +8°C° 0 mm 4 mps 755 mmHg 54%
16:00 +8°C° 0 mm 4 mps 755 mmHg 56%
17:00 +7°C° 0 mm 4 mps 755 mmHg 62%
18:00 +6°C° 0 mm 4 mps 755 mmHg 67%
19:00 +5°C° 0 mm 4 mps 756 mmHg 73%
20:00 +5°C° 0 mm 4 mps 756 mmHg 75%
21:00 +5°C° 0 mm 4 mps 756 mmHg 77%
22:00 +5°C° 0 mm 4 mps 756 mmHg 80%
23:00 +5°C° 0 mm 4 mps 756 mmHg 80%

Day after tomorrow, 22 January, Friday

Time Temperature Precipitation Wind Pressure Humidity
00:00 +5°C° 0 mm 3 mps 756 mmHg 81%
01:00 +4°C° 0 mm 3 mps 756 mmHg 81%
02:00 +4°C° 0 mm 3 mps 756 mmHg 81%
03:00 +4°C° 0 mm 3 mps 756 mmHg 81%
04:00 +3°C° 0 mm 3 mps 756 mmHg 81%
05:00 +3°C° 0 mm 3 mps 757 mmHg 81%
06:00 +3°C° 0 mm 3 mps 757 mmHg 81%
07:00 +4°C° 0 mm 2 mps 758 mmHg 81%
08:00 +4°C° 0 mm 3 mps 758 mmHg 74%
09:00 +7°C° 0 mm 3 mps 758 mmHg 67%
10:00 +8°C° 0 mm 3 mps 758 mmHg 59%
11:00 +9°C° 0 mm 3 mps 758 mmHg 53%
12:00 +10°C° 0 mm 3 mps 758 mmHg 46%
13:00 +11°C° 0 mm 3 mps 758 mmHg 39%
14:00 +11°C° 0 mm 3 mps 758 mmHg 41%
15:00 +10°C° 0 mm 3 mps 758 mmHg 44%
16:00 +10°C° 0 mm 2 mps 758 mmHg 46%
17:00 +9°C° 0 mm 2 mps 758 mmHg 49%
18:00 +7°C° 0 mm 2 mps 759 mmHg 52%
19:00 +7°C° 0 mm 1 mps 759 mmHg 55%
20:00 +6°C° 0 mm 1 mps 760 mmHg 58%
21:00 +6°C° 0 mm 1 mps 760 mmHg 61%
22:00 +5°C° 0 mm 1 mps 760 mmHg 63%
23:00 +3°C° 0 mm 2 mps 761 mmHg 64%

23 January, Saturday

Time Temperature Precipitation Wind Pressure Humidity
00:00 +2°C° 0 mm 3 mps 761 mmHg 65%
01:00 0°C° 0 mm 4 mps 761 mmHg 66%
02:00 -1°C° 0 mm 4 mps 762 mmHg 65%
03:00 -1°C° 0 mm 4 mps 762 mmHg 65%
04:00 -2°C° 0 mm 4 mps 763 mmHg 64%
05:00 -3°C° 0 mm 4 mps 764 mmHg 64%
06:00 -3°C° 0 mm 4 mps 764 mmHg 64%
07:00 -3°C° 0 mm 4 mps 765 mmHg 63%
08:00 -2°C° 0 mm 4 mps 766 mmHg 57%
09:00 -2°C° 0 mm 5 mps 767 mmHg 50%
10:00 -1°C° 0 mm 5 mps 767 mmHg 44%
11:00 0°C° 0 mm 5 mps 767 mmHg 41%
12:00 +1°C° 0 mm 5 mps 767 mmHg 38%
13:00 +3°C° 0 mm 4 mps 767 mmHg 35%
14:00 +3°C° 0 mm 4 mps 767 mmHg 35%
15:00 +3°C° 0 mm 4 mps 767 mmHg 35%
16:00 +3°C° 0 mm 3 mps 767 mmHg 36%
17:00 +2°C° 0 mm 3 mps 768 mmHg 39%
18:00 +2°C° 0 mm 2 mps 768 mmHg 43%
19:00 -1°C° 0 mm 2 mps 769 mmHg 47%
20:00 -1°C° 0 mm 2 mps 769 mmHg 48%
21:00 -1°C° 0 mm 2 mps 769 mmHg 48%
22:00 -1°C° 0 mm 2 mps 770 mmHg 48%
23:00 -2°C° 0 mm 2 mps 770 mmHg 49%

24 January, Sunday

Time Temperature Precipitation Wind Pressure Humidity
00:00 -2°C° 0 mm 2 mps 770 mmHg 51%
01:00 -2°C° 0 mm 2 mps 770 mmHg 52%
02:00 -2°C° 0 mm 2 mps 770 mmHg 54%
03:00 -3°C° 0 mm 2 mps 770 mmHg 56%
04:00 -3°C° 0 mm 2 mps 769 mmHg 58%
05:00 -3°C° 0 mm 2 mps 770 mmHg 58%
06:00 -1°C° 0 mm 1 mps 770 mmHg 59%
07:00 -1°C° 0 mm 1 mps 770 mmHg 60%
08:00 0°C° 0 mm 1 mps 770 mmHg 53%
09:00 +2°C° 0 mm 1 mps 770 mmHg 46%
10:00 +3°C° 0 mm 1 mps 770 mmHg 39%
11:00 +5°C° 0 mm 1 mps 770 mmHg 37%
12:00 +6°C° 0 mm 1 mps 769 mmHg 35%
13:00 +7°C° 0 mm 1 mps 768 mmHg 33%
14:00 +8°C° 0 mm 1 mps 768 mmHg 35%
15:00 +7°C° 0 mm 2 mps 767 mmHg 37%
16:00 +7°C° 0 mm 2 mps 767 mmHg 39%
17:00 +5°C° 0 mm 2 mps 767 mmHg 45%
18:00 +4°C° 0 mm 2 mps 767 mmHg 50%
19:00 +3°C° 0 mm 1 mps 767 mmHg 56%
20:00 +2°C° 0 mm 2 mps 767 mmHg 58%
21:00 +2°C° 0 mm 2 mps 766 mmHg 59%
22:00 +2°C° 0 mm 2 mps 766 mmHg 60%
23:00 +2°C° 0 mm 2 mps 765 mmHg 62%

25 January, Monday

Time Temperature Precipitation Wind Pressure Humidity
00:00 +1°C° 0 mm 3 mps 764 mmHg 63%
01:00 +1°C° 0 mm 3 mps 763 mmHg 65%
02:00 +1°C° 0 mm 3 mps 763 mmHg 68%
03:00 +2°C° 0 mm 3 mps 762 mmHg 71%
04:00 +2°C° 0 mm 3 mps 761 mmHg 74%
05:00 +3°C° 0.3 mm 3 mps 761 mmHg 79%
06:00 +4°C° 0.3 mm 4 mps 760 mmHg 85%
07:00 +5°C° 0.3 mm 4 mps 759 mmHg 91%
08:00 +6°C° 1.7 mm 5 mps 759 mmHg 93%
09:00 +8°C° 1.7 mm 5 mps 758 mmHg 95%
10:00 +9°C° 1.7 mm 6 mps 758 mmHg 97%
11:00 +9°C° 0.7 mm 5 mps 757 mmHg 97%
12:00 +11°C° 0.7 mm 4 mps 756 mmHg 97%
13:00 +11°C° 0.7 mm 3 mps 755 mmHg 98%
14:00 +12°C° 0.1 mm 3 mps 755 mmHg 96%
15:00 +13°C° 0.1 mm 3 mps 755 mmHg 94%
16:00 +15°C° 0.1 mm 2 mps 755 mmHg 93%
17:00 +14°C° 0 mm 2 mps 755 mmHg 94%
18:00 +13°C° 0 mm 2 mps 756 mmHg 95%
19:00 +13°C° 0 mm 2 mps 756 mmHg 96%
20:00 +13°C° 0.8 mm 2 mps 756 mmHg 97%
21:00 +13°C° 0.8 mm 2 mps 756 mmHg 97%
22:00 +12°C° 0.8 mm 1 mps 756 mmHg 98%
23:00 +12°C° 3.4 mm 2 mps 755 mmHg 98%
Show more